Location: Fort Worth, Tx
(32.7431°N, 97.3695°W)
Time: 16:52:09
(UTC-04:00)

Altair - Pass Details

Date: 04 October 2023
Orbit: 1501 x 1682 km, 47.2° (Epoch: 06 October)

Event Time Altitude Azimuth Distance (km) Brightness Sun altitude
Rises 09:21:23 0° 307° (NW) 4,889 9.6 10.8°
Reaches altitude 10° 09:24:33 10° 309° (NW) 3,917 9.1 11.4°
Maximum altitude 09:34:39 71° 34° (NNE) 1,759 8.2 13.5°
Drops below altitude 10° 09:44:46 10° 117° (ESE) 3,926 11.8 15.5°
Sets 09:47:56 0° 120° (ESE) 4,901 11.7 16.2°
